Submittal Forms
Current Contests
Recent Contests

Club Activity Tracker - SP DX Club (from club selection on form)

Recent postings for the selected club or group are listed below. Other than the call used, all calls listed are only those associated with the club or group. Click on a call to see the details of the posting.
Status Key: new=new posting, update=update prior posting, move=change club/group, delete=delete prior posting.

Sort by   for past

TimestampCallContestClassPowerScoreStatus
2020-05-25 04:56:53SP4LVKEU PSKSOAB-24LP44,802new5600
2020-05-21 03:29:10SQ9SCWopsTSingle OpLP289new5594
2020-05-20 20:54:55SP1DCWopsTSingle OpHP2,856new5593
2020-05-20 20:03:31SQ9SCWopsTSingle OpLP3,162new5593
2020-05-20 14:02:02SQ9SCWopsTSingle OpLP2,392new5592
2020-05-14 03:44:58SQ9SCWopsTSingle OpLP196new5576
2020-05-13 20:21:39SP1DCWopsTSingle OpHP3,380new5575
2020-05-13 20:04:28SQ9SCWopsTSingle OpLP529new5575
2020-05-11 05:09:22SP4LVKVolta RTTYSOABLP3,816,120new5563
2020-05-07 03:46:57SQ9SCWopsTSingle OpLP169new5559
 
2020-05-06 20:06:20SP1DCWopsTSingle OpHP2,585new5558
2020-05-06 20:03:02SQ9SCWopsTSingle OpLP2,756new5558
2020-05-06 14:03:37SQ9SCWopsTSingle OpLP1,258new5557
2020-05-05 05:13:50SP4LVKARISO RTTYLP83,720new5543
2020-05-03 18:27:14SN5J(SP5JXK)ARISO CWLP571,662new5543
2020-04-30 03:36:41SQ9SCWopsTSingle OpLP225new5537
2020-04-29 20:03:11SP1DCWopsTSingle OpHP1,936new5536
2020-04-29 20:02:20SQ9SCWopsTSingle OpLP2,808new5536
2020-04-27 08:53:07SP6IHESP DXSOSB/20CWQRP13,904new5462
2020-04-26 18:15:38SN5J(@SP5JXK)Holyland DXSO CWLP2,627new5502
 
2020-04-26 18:02:21SP5EWXHelvetiaSO CWLP83,507new5521
2020-04-26 15:55:36SP6IHESPDX RTTYSOABHP3,078,738new5520
2020-04-26 15:15:18SN5J(@SP5JXK)HelvetiaSO CWLP325,008new5521
2020-04-26 14:48:46SP4LVKSPDX RTTYSOABQRP452,884new